Hourly Data Report for September 13, 2020

OTTAWA INTL A
ONTARIO
Current Station Operator: NAVCAN

45°19'00.000" N
75°40'00.000" W
114.90 m
6106001
71628
YOW

Download Data

Hourly Data (September 2020)
Hourly Data Report for September 13, 2020
TIME
LST
Temp Definition
°C
Dew Point Definition
°C
Rel Hum Definition
%
Precip. Amount Definition
mm

Wind Dir Definition
10's deg

Wind Spd Definition
km/h
Visibility Definition
km
Stn Press Definition
kPa
Hmdx Definition


Wind Chill Definition


Weather Definition


00:00 14.9 11.7 81   15 19 24.1 100.32     LegendNANA
01:00 15.8 12.2 79   14 10 24.1 100.31     Cloudy
02:00 16.1 12.6 80   13 10 24.1 100.25     LegendNANA
03:00 16.1 12.9 81   13 11 24.1 100.18     LegendNANA
04:00 14.8 12.3 85   13 9 24.1 100.11     Mostly Cloudy
05:00 14.9 12.3 84   13 12 24.1 100.09     LegendNANA
06:00 15.0 12.3 84   13 12 24.1 100.06     LegendNANA
07:00 14.0 13.3 95   14 9 16.1 100.03     Rain
08:00 14.9 13.9 93   15 13 24.1 99.92     LegendNANA
09:00 15.4 13.9 90   16 13 24.1 99.84     Rain
10:00 15.4 14.0 92   18 9 24.1 99.82     Rain
11:00 15.5 14.3 92   17 20 16.1 99.70     Rain
12:00 15.6 14.8 95   18 19 16.1 99.63     Rain
13:00 16.3 15.8 97   19 22 24.1 99.51     Rain
14:00 17.6 16.8 95   20 31 24.1 99.49     Rain
15:00 19.1 17.7 91   20 26 24.1 99.45     LegendNANA
16:00 20.5 18.4 87   20 26 24.1 99.44 27   Mostly Cloudy
17:00 21.3 18.7 85   22 22 24.1 99.50 28   LegendNANA
18:00 20.6 14.8 69   24 18 24.1 99.60     LegendNANA
19:00 18.7 14.2 75   26 18 24.1 99.69     Mainly Clear
20:00 18.5 14.0 75   26 28 24.1 99.81     LegendNANA
21:00 16.9 13.4 80   26 25 24.1 99.88     LegendNANA
22:00 16.9 13.4 80   25 23 24.1 99.96     Mostly Cloudy
23:00 15.6 12.8 84   25 18 24.1 100.03     LegendNANA

Notes on Data Quality.

Legend

  • E = Estimated
  • M = Missing
  • NA = Not Available*
  • [empty] = Indicates an unobserved value
Date modified: